Location: Pl�tzky
(52.0521°N, 11.8020°E)
Time: 23:20:48
(UTC+00:00)

Meteor 1-20 Rocket - Pass Details

Date: 22 November 2019
Orbit: 820 x 891 km, 81.2° (Epoch: 11 December)

Event Time Altitude Azimuth Distance (km) Brightness Sun altitude
Rises 16:49:22 0° 349° (NNW) 3,517 7.4 -14.4°
Reaches altitude 10° 16:51:55 10° 354° (N) 2,571 6.6 -14.7°
Maximum altitude 16:57:40 54° 71° (ENE) 1,071 4.4 -15.6°
Drops below altitude 10° 17:03:18 10° 149° (SSE) 2,526 6.5 -16.4°
Sets 17:05:46 0° 154° (SSE) 3,450 7.2 -16.8°
